Location: Unspecified
(0.0000°N, 0.0000°E)
Time: 19:04:42
(UTC+00:00)

Daily predictions for brighter satellites

Satellite Brightness Start Highest point End
(mag) Time Altitude Azimuth Time Altitude Azimuth Time Altitude Azimuth
Cosmos 1190 Rocket 4.5 18:19:26 10° S 18:24:23 39° ESE 18:29:16 10° NE
OAO 3 Copernicus 4.5 18:20:37 10° NW 18:25:36 64° NE 18:30:35 10° ESE
Cosmos 1842 3.6 18:22:27 10° S 18:26:23 71° W 18:30:18 10° N
SL-8 Rocket 4.3 18:20:40 10° NNE 18:26:41 48° E 18:32:41 10° SSE
ARIANE 5 DEB (SYLDA) 2.9 18:22:07 10° W 18:26:56 79° S 18:34:18 10° E
ARIANE 5 DEB (SYLDA) 1.8 18:29:13 10° W 18:31:11 73° S 18:34:50 10° E
SPOT 3 Rocket 3.6 18:26:25 10° SSE 18:31:37 87° ENE 18:36:47 10° NNW
Cosmos 2082 4.3 18:30:03 10° SSE 18:35:01 32° ESE 18:39:56 10° NE
Cosmos 1707 4.2 18:33:53 10° SE 18:36:34 18° E 18:39:15 10° NE
ALOS 3.4 18:33:09 10° SE 18:36:54 24° ENE 18:40:38 10° NNE
FREGAT/IRIS 4.5 18:35:29 10° ESE 18:37:24 16° E 18:39:20 10° NE
H-10 deb 3.2 18:35:24 10° WNW 18:38:24 25° N 18:40:34 10° ENE
Cosmos 2322 Rocket 2.2 18:33:27 10° N 18:39:02 65° ENE 18:44:39 10° SSE
ATLAS 2A CENTAUR R/B 4.2 18:34:18 10° SW 18:40:47 60° SE 19:23:13 10° ENE
Cosmos 2297 Rocket 2.7 18:37:45 10° S 18:42:55 37° ESE 18:48:03 10° NE
ATLAS CENTAUR Rocket 3.9 18:30:22 10° WNW 18:45:41 43° SW 18:50:06 10° SSE
Cosmos 2366 rocket 4.1 18:42:16 10° N 18:48:19 54° E 18:54:27 10° SSE
Delta 2 Rocket 4.2 18:43:23 10° WSW 18:48:38 75° NW 18:54:19 10° NE
Meteor 2-5 Rocket 4.4 18:46:02 10° SSE 18:51:20 34° E 18:56:32 10° NNE
H-2A R/B 4.3 18:52:17 15° E 18:53:05 16° ENE 18:55:27 10° NE
Cosmos 1758 Rocket 3.5 18:49:30 10° S 18:53:52 83° E 18:58:16 10° N
USA 215 3.3 18:48:16 10° SE 18:54:50 89° ENE 19:01:24 10° NW
GPS 2-05 Rocket1 3.6 18:51:53 10° WSW 18:54:52 45° NW 18:57:49 10° NE
Meteor 1-22 Rocket 4.4 18:49:27 10° N 18:55:28 89° E 19:01:36 10° S
ASTEX 1 4.3 18:52:58 13° SE 18:56:29 28° E 19:00:36 10° NNE
Ariane H10+ 1.7 18:53:55 10° WSW 18:57:56 30° S 18:58:56 22° SE
METEOR-M 4.2 18:54:24 10° S 18:59:46 82° WSW 19:05:06 10° NNW
ARIANE 44P R/B 3.9 18:56:28 10° WSW 19:00:21 71° SSE 19:22:54 10° E
Meteor 2-14 Rocket 4.5 18:56:36 10° N 19:02:35 59° E 19:08:36 10° SSE
Cosmos 2084 3.9 19:03:42 10° S 19:07:52 37° ESE 19:11:47 10° NE
SJ-6B 3.2 19:06:05 22° SE 19:08:15 43° E 19:11:58 10° N
ATLAS 5 CENTAUR R/B 1.7 19:04:16 10° S 19:08:44 53° ESE 19:13:07 10° NE
CZ-3A R/B 3.8 18:34:09 10° WSW 19:09:12 67° NNW 19:14:01 10° NE
Cosmos 1140 Rocket 3.9 19:04:29 10° S 19:09:20 39° ESE 19:14:07 10° NE
BLOCK DM-SL R/B 4.5 19:06:52 10° W 19:11:20 89° S 19:24:31 16° E
Cosmos 1867 4.2 19:06:54 10° S 19:11:38 31° ESE 19:16:22 10° NE
Cosmos 389 Rocket 2.4 19:10:16 10° N 19:13:48 64° E 19:15:32 28° SSE
Cosmos 407 Rocket 4.4 19:14:15 10° SSW 19:19:14 51° WNW 19:24:12 10° N
Cosmos 1812 Rocket 4.2 19:15:57 10° NNW 19:20:11 54° W 19:24:24 10° S
Ariane 44P Rocket 4.1 18:55:45 10° W 19:20:20 72° N 19:23:14 24° ENE
Meteor 1-24 Rocket 4.3 19:17:43 17° SSE 19:21:55 39° E 19:27:26 10° NNE
Cosmos 1271 Rocket 4.3 19:18:24 10° NNW 19:22:03 36° W 19:25:40 10° SSW
deb Centaur AC-2 4.4 19:17:33 10° WSW 19:23:37 86° SSE 19:27:00 21° ENE
Cosmos 1023 Rocket 4.4 19:20:00 10° S 19:25:10 63° ESE 19:30:16 10° NNE
Cosmos 2227 Rocket 3.0 19:20:26 10° SSW 19:25:56 53° WNW 19:31:24 10° N
Cosmos 1544 3.6 19:22:30 10° NNW 19:26:09 58° W 19:28:49 17° S
Cosmos 1378 3.0 19:27:00 25° S 19:29:07 89° E 19:32:51 10° N
Lacrosse 4 Rocket 4.2 19:29:02 10° WSW 19:32:02 20° WNW 19:35:03 10° NNW
Cosmos 1954 Rocket 4.0 19:26:45 10° SSW 19:32:02 83° W 19:37:14 10° N
Helios 1B rocket 2.8 19:33:32 10° NNE 19:36:41 45° NE 19:36:41 45° NE
Cosmos 1758 3.5 19:35:47 10° N 19:39:48 72° W 19:40:57 44° SSW
Iridium 2 3.8 19:36:51 10° N 19:40:10 64° NNE 19:40:10 64° NNE
Cosmos 614 Rocket 3.8 19:41:07 10° S 19:46:21 86° ESE 19:51:34 10° NNE
GPS 2-17 Rocket1 4.2 19:43:40 10° W 19:47:34 30° SSW 19:47:34 30° SSW
Meteor 2-15 4.4 19:46:29 48° SE 19:47:49 60° E 19:53:44 10° NNE
COSMOS 2428 3.5 19:43:35 10° N 19:47:54 35° NE 19:47:54 35° NE
SL-16 R/B 4.5 19:46:59 10° WNW 19:51:00 20° WSW 19:55:03 10° SSW
Cosmos 2360 Rocket 2.4 19:46:41 10° NNW 19:52:14 68° WSW 19:54:13 40° S
Sea Lan Dem Rocket 2.0 19:48:08 10° W 19:52:08 78° WNW 19:52:08 78° WNW
Cosmos 1470 4.3 19:53:54 10° N 19:55:48 28° N 19:55:48 28° N
Resurs 01 Rocket 2.2 20:03:10 54° NNW 20:03:10 54° NNW 20:06:36 10° NNW
Cosmos 1821 Rocket 3.8 19:57:29 10° N 20:03:48 75° E 20:04:07 73° ESE
GPS 2-12 Rocket1 3.8 20:01:18 10° W 20:05:55 50° NNW 20:05:55 50° NNW
ATLAS 2AS CENTAUR R/B 2.9 19:59:48 10° N 20:06:29 51° ENE 20:06:29 51° ENE
Spot 2 Rocket 3.8 20:11:42 62° NNW 20:11:42 62° NNW 20:15:52 10° NNW
Cosmos 1953 4.3 20:08:58 10° NW 20:12:17 26° W 20:12:36 25° WSW
Cosmos 2333 Rocket 4.3 20:10:03 10° NNE 20:11:05 14° NNE 20:11:05 14° NNE
Cosmos 2219 Rocket 3.9 20:12:24 10° N 20:14:28 21° NNE 20:14:28 21° NNE
Cosmos 1934 Rocket 4.3 20:14:07 10° N 20:18:36 51° NNE 20:18:36 51° NNE
Cosmos 1727 Rocket 4.1 20:20:52 66° SW 20:21:31 71° W 20:27:45 10° N
H-2A R/B 3.8 20:23:47 10° NW 20:32:41 28° N 20:32:41 28° N
MAQSAT/ARIANE V 4.4 20:59:30 10° WNW 21:26:19 20° E 22:06:30 10° E
